This demonstration page uses our WeatherBlox Daily Observations layout. Learn more.

Left ArrowRight Arrow

40.92945, -100.16068

Hourly Observations for February 21, 2018

Temp ( °F °C ) Dew Point ( °F °C ) Humidity (%) Winds ( mph kmh ) Pressure ( in mb ) Visibility ( mi km ) Precip ( " mm )
12:15 am 00:15 Clear 6 -14.3 N/A 76 76 WNW 9 15 30.65 1038 10 16 N/A
12:35 am 00:35 Clear 6 -14.2 N/A 74 74 NW 9 15 30.65 1038 10 16 N/A
12:55 am 00:55 Clear 6 -14.5 -1 -18.1 74 74 NW 8 13 30.65 1038 10 16 N/A
1:15 am 01:15 Clear 6 -14.6 -1 -18.2 74 74 WNW 7 11 30.68 1039 10 16 N/A
1:35 am 01:35 Clear 5 -14.8 -1 -18.4 74 74 NW 8 13 30.65 1038 10 16 N/A
1:55 am 01:55 Clear 5 -15 -1 -18.6 74 74 WNW 8 13 30.68 1039 10 16 N/A
2:15 am 02:15 Clear 5 -15 -1 -18.5 75 75 WNW 6 9 30.65 1038 10 16 N/A
2:35 am 02:35 Clear 5 -15 -1 -18.5 75 75 W 5 7 30.68 1039 10 16 N/A
2:55 am 02:55 Mostly Cloudy 6 -14.6 -1 -18.1 75 75 W 8 13 30.68 1039 10 16 N/A
3:15 am 03:15 Mostly Cloudy 6 -14.7 -1 -18.2 75 75 W 6 9 30.68 1039 10 16 N/A
3:35 am 03:35 Partly Cloudy 6 -14.7 N/A 76 76 WSW 3 6 30.68 1039 10 16 N/A
3:55 am 03:55 Partly Cloudy 5 -15 N/A 78 78 WSW 3 6 30.68 1039 10 16 N/A
4:15 am 04:15 Clear 5 -15.1 -1 -18.2 77 77 W 5 7 30.65 1038 10 16 N/A
4:35 am 04:35 Clear 5 -15.1 -1 -18.1 78 78 WSW 3 6 30.65 1038 10 16 N/A
4:55 am 04:55 Clear 5 -15.2 -1 -18.2 78 78 W 5 7 30.65 1038 10 16 N/A
5:15 am 05:15 Clear 4 -15.3 -1 -18.3 78 78 W 3 6 30.65 1038 10 16 N/A
5:35 am 05:35 Clear 4 -15.5 -1 -18.4 79 79 N N/A 30.65 1038 10 16 N/A
5:55 am 05:55 Clear 4 -15.5 -1 -18.5 78 78 N N/A 30.71 1040 10 16 N/A
6:15 am 06:15 Clear 4 -15.5 -1 -18.5 78 78 N N/A 30.65 1038 10 16 N/A
6:35 am 06:35 Clear 4 -15.5 -1 -18.2 80 80 N N/A 30.71 1040 10 16 N/A
6:55 am 06:55 Clear 4 -15.6 -1 -18.5 79 79 NW 3 6 30.71 1040 10 16 N/A
7:15 am 07:15 Clear 4 -15.5 -1 -18.3 79 79 NW 3 6 30.71 1040 10 16 N/A
7:35 am 07:35 Sunny 4 -15.6 -1 -18.4 79 79 WNW 3 6 30.71 1040 10 16 N/A
7:55 am 07:55 Sunny 5 -15.2 N/A 79 79 N N/A 30.74 1041 10 16 N/A
8:15 am 08:15 Sunny 6 -14.6 N/A 77 77 N N/A 30.74 1041 10 16 N/A
8:35 am 08:35 Sunny 7 -13.7 2 -16.9 77 77 N N/A 30.74 1041 10 16 N/A
8:55 am 08:55 Sunny 10 -12.5 3 -16.3 74 74 N N/A 30.77 1042 10 16 N/A
9:15 am 09:15 Sunny 11 -11.6 3 -16 70 70 SSE 5 7 30.74 1041 10 16 N/A
9:35 am 09:35 Sunny 14 -10.1 5 -15.1 67 67 SSE 10 17 30.74 1041 10 16 N/A
9:55 am 09:55 Sunny 15 -9.6 5 -15.1 65 65 SSE 7 11 30.74 1041 10 16 N/A
10:15 am 10:15 Sunny 16 -8.7 5 -15 61 61 SSE 7 11 30.71 1040 10 16 N/A
10:35 am 10:35 Sunny 17 -8.2 5 -14.9 59 59 S 6 9 30.71 1040 10 16 N/A
10:55 am 10:55 Sunny 18 -7.7 4 -15.3 55 55 SSE 6 9 30.71 1040 10 16 N/A
11:15 am 11:15 Sunny 20 -6.8 5 -14.9 53 53 S 8 13 30.71 1040 10 16 N/A
11:35 am 11:35 Sunny 21 -6.3 5 -14.9 51 51 S 7 11 30.65 1038 10 16 N/A
11:55 am 11:55 Sunny 21 -6.1 5 -14.9 50 50 SSE 8 13 30.65 1038 10 16 N/A
12:15 pm 12:15 Sunny 21 -5.9 4 -15.6 47 47 SSE 5 7 30.65 1038 10 16 N/A
12:35 pm 12:35 Sunny 22 -5.3 5 -14.8 48 48 S 6 9 30.65 1038 10 16 N/A
1:15 pm 13:15 Sunny 24 -4.3 6 -14.6 45 45 SSE 7 11 30.62 1037 10 16 N/A
1:35 pm 13:35 Sunny 25 -3.9 7 -14 46 46 SSE 6 9 30.56 1035 10 16 N/A
1:55 pm 13:55 Sunny 25 -3.7 6 -14.6 43 43 SSE 7 11 30.56 1035 10 16 N/A
2:15 pm 14:15 Sunny 26 -3.1 7 -14.1 43 43 S 8 13 30.56 1035 10 16 N/A
2:35 pm 14:35 Sunny 27 -2.7 8 -13.4 44 44 SSE 8 13 30.56 1035 10 16 N/A
2:55 pm 14:55 Sunny 28 -2.3 8 -13.2 43 43 SSE 3 6 30.53 1034 10 16 N/A
3:15 pm 15:15 Sunny 28 -2.2 7 -13.8 41 41 S 7 11 30.53 1034 10 16 N/A
3:35 pm 15:35 Sunny 29 -1.8 7 -13.7 40 40 SE 5 7 30.50 1033 10 16 N/A
3:55 pm 15:55 Mostly Cloudy 29 -1.7 7 -13.8 40 40 SSE 5 7 30.50 1033 10 16 N/A
4:15 pm 16:15 Mostly Cloudy 29 -1.7 6 -14.2 38 38 SSE 7 11 30.50 1033 10 16 N/A
4:35 pm 16:35 Mostly Cloudy 29 -1.6 7 -14 39 39 SE 8 13 30.50 1033 10 16 N/A
4:55 pm 16:55 Partly Cloudy 28 -2 8 -13.4 42 42 SSE 8 13 30.53 1034 10 16 N/A
5:15 pm 17:15 Partly Cloudy 29 -1.9 7 -13.8 40 40 SSE 10 17 30.53 1034 10 16 N/A
5:35 pm 17:35 Mostly Cloudy 28 -2 8 -13.3 42 42 SE 8 13 30.53 1034 10 16 N/A
5:55 pm 17:55 Cloudy 28 -2 8 -13.5 41 41 SE 8 13 30.53 1034 10 16 N/A
6:15 pm 18:15 Cloudy 28 -2 8 -13.5 41 41 SE 6 9 30.53 1034 10 16 N/A
6:35 pm 18:35 Cloudy 28 -2 8 -13.5 41 41 SE 8 13 30.53 1034 10 16 N/A
6:55 pm 18:55 Cloudy 29 -1.8 8 -13.1 42 42 ESE 9 15 30.50 1033 10 16 N/A
7:15 pm 19:15 Cloudy 28 -2 9 -12.7 44 44 ESE 9 15 30.53 1034 10 16 N/A
7:35 pm 19:35 Cloudy 28 -2.3 9 -12.8 45 45 ESE 8 13 30.53 1034 10 16 N/A
7:55 pm 19:55 Cloudy 28 -2.4 9 -13 44 44 ESE 9 15 30.53 1034 10 16 N/A
8:15 pm 20:15 Cloudy 28 -2.5 9 -12.6 46 46 ESE 9 15 30.53 1034 10 16 N/A
8:35 pm 20:35 Cloudy 28 -2.5 9 -12.6 46 46 E 9 15 30.53 1034 10 16 N/A
8:55 pm 20:55 Cloudy 27 -2.7 9 -12.6 47 47 E 10 17 30.53 1034 10 16 N/A
9:15 pm 21:15 Cloudy 26 -3.1 10 -12.2 50 50 ESE 6 9 30.53 1034 10 16 N/A
9:35 pm 21:35 Cloudy 26 -3.2 12 -11.3 54 54 E 7 11 30.53 1034 10 16 N/A
9:55 pm 21:55 Cloudy 26 -3.4 13 -10.7 57 57 ESE 7 11 30.53 1034 10 16 N/A
10:15 pm 22:15 Cloudy 25 -3.7 13 -10.4 60 60 ESE 8 13 30.53 1034 10 16 N/A
10:35 pm 22:35 Cloudy 25 -3.7 13 -10.3 61 61 ESE 8 13 30.53 1034 10 16 N/A
10:55 pm 22:55 Cloudy with Light Snow 25 -3.8 13 -10.3 61 61 ESE 8 13 30.53 1034 10 16 N/A
11:15 pm 23:15 Cloudy with Light Snow 24 -4.3 16 -8.8 71 71 E 8 13 30.53 1034 3 5 N/A
11:35 pm 23:35 Cloudy with Light Snow 24 -4.7 17 -8.6 74 74 E 9 15 30.56 1035 3 5 N/A
11:55 pm 23:55 Cloudy with Light Snow 23 -5 17 -8.4 77 77 E 8 13 30.56 1035 10 16 N/A

Powered by AerisWeather